Other Public Products
Issued by NWS Grand Forks, ND

Home | Current Version | Previous Version | Graphics & Text | Print | Product List | Glossary On
Versions: 1 2 3 4 5 6 7 8 9 10 11 12 13 14 15 16 17 18 19 20 21 22 23 24 25 26 27 28 29 30 31 32 33 34 35 36 37 38 39 40 41 42 43 44 45 46 47 48 49 50
000
FPUS83 KFGF 301210
OPUFGF
PRAIRIE TO PINES WEATHER ROUNDUP
NATIONAL WEATHER SERVICE EASTERN NORTH DAKOTA/GRAND FORKS ND
700 AM CDT TUE JUN 30 2015

 **SATELLITE DATA USED TO AUGMENT SKY COVER AT AUTOMATED STATIONS**
 *****  WEATHER ACROSS EASTERN NORTH DAKOTA  *****

CITY           SKY/WX    TMP DP  RH WIND       PRES   REMARKS
GRAND FORKS    CLOUDY    57  56  96 NE5       29.94S FOG
6HR MIN TEMP:  54; 6HR MAX TEMP:  58;

GRAND FORKS AF SUNNY     56  56  97 NW2       29.96R
GRAND CITY NWS   N/A     57 N/A N/A NE1         N/A
BUXTON         NOT AVBL
DEVILS LAKE    PTSUNNY   61  55  82 CALM      29.98R
6HR MIN TEMP:  57; 6HR MAX TEMP:  64;

FARGO          SUNNY     58  56  93 CALM      29.95R FOG
6HR MIN TEMP:  56; 6HR MAX TEMP:  64;

WAHPETON ARPT  NOT AVBL
$$

 *****  WEATHER ACROSS CENTRAL AND WESTERN NORTH DAKOTA  *****

CITY           SKY/WX    TMP DP  RH WIND       PRES   REMARKS
JAMESTOWN      MOSUNNY   62  59  90 CALM      29.96F FOG
6HR MIN TEMP:  60; 6HR MAX TEMP:  66;

BISMARCK       CLOUDY    67  63  87 NE9       29.95R
6HR MIN TEMP:  67; 6HR MAX TEMP:  71; 6HR PCP: TRACE;

MINOT          CLOUDY    64  61  90 E8        29.93S
6HR MIN TEMP:  64; 6HR MAX TEMP:  70;

MINOT AFB      CLOUDY    63  63 100 E8        29.93S
6HR MIN TEMP:  63; 6HR MAX TEMP:  68; 6HR PCP:  0.01;

GARRISON         N/A     69  64  84 SE7       29.92F
6HR MIN TEMP:  67; 6HR MAX TEMP:  73;

WILLISTON      LGT RAIN  67  61  81 N10       29.95R
6HR MIN TEMP:  67; 6HR MAX TEMP:  72; 6HR PCP: TRACE;

DICKINSON      CLOUDY    67  60  78 SE7       29.94S
6HR MIN TEMP:  66; 6HR MAX TEMP:  73;

HETTINGER      CLOUDY    65  59  81 E12       29.95F
6HR MIN TEMP:  63; 6HR MAX TEMP:  69;

$$

 *****  OTHER OBSERVATIONS NORTHEAST NORTH DAKOTA  *****

CITY           SKY/WX    TMP DP  RH WIND       PRES   REMARKS
WALHALLA       FAIR      57  57 100 MISG      29.97S FOG
LANGDON        FAIR      55  55 100 CALM      29.98S FOG
CAVALIER       FAIR      59  59 100 N3        29.96S FOG
GRAFTON        FAIR      57  57 100 NE3       29.96S FOG
CANDO          FOG       57  57 100 CALM      29.99R VSB<1/4
FORT TOTTEN    NOT AVBL
ROLLA          FOG       57  57 100 CALM      30.00S VSB<1/4
RUGBY          NOT AVBL
 ***** THE ABOVE OBSERVATIONS ARE NON NWS ARE NOT QUALITY
        CONTROLLED AND MAY MIS-REPORT RAIN FOR SNOW...
$$

 *****  OTHER OBSERVATIONS SOUTHEAST NORTH DAKOTA *****

CITY           SKY/WX    TMP DP  RH WIND       PRES   REMARKS
COOPERSTOWN    NOT AVBL
VALLEY CITY    FAIR      57  57 100 CALM      29.97F FOG
OAKES            N/A     61  61 100 N3        29.96F FOG
GWINNER        NOT AVBL
BUFFALO        NOT AVBL
WYNDMERE       NOT AVBL
 ***** THE ABOVE OBSERVATIONS ARE NON NWS ARE NOT QUALITY
       CONTROLLED AND MAY MIS-REPORT RAIN FOR SNOW...
$$

  *****  WEATHER ACROSS NORTHERN MINNESOTA  *****

CITY           SKY/WX    TMP DP  RH WIND       PRES   REMARKS
FLAG ISLAND    MOSUNNY   61  52  72 E3        29.98S
WARROAD        MOSUNNY   59  55  88 E8        29.99F
ROSEAU         SUNNY     55  52  88 SE5       29.99S
HALLOCK        MOSUNNY   55  55 100 E3        29.96S
THF RVR FALLS  SUNNY     57  54  88 E7        29.98S
6HR MIN TEMP:  57; 6HR MAX TEMP:  61;

HALSTAD        NOT AVBL
FOSSTON        FAIR      55  54  94 CALM      29.98S FOG
BAUDETTE       MOSUNNY   55  52  89 E3        29.99R
6HR MIN TEMP:  52; 6HR MAX TEMP:  60;

WASKISH        MOSUNNY   55  54  94 NE6       29.99R
CROOKSTON      SUNNY     57  57 100 E9        29.96S
$$
  *****  WEATHER ACROSS CENTRAL AND WEST MINNESOTA  *****

CITY           SKY/WX    TMP DP  RH WIND       PRES   REMARKS
BEMIDJI        SUNNY     54  53  97 NE3       29.98R
PARK RAPIDS    SUNNY     58  55  90 CALM      29.97R FOG
6HR MIN TEMP:  54; 6HR MAX TEMP:  65;

WADENA         SUNNY     55  55 100 CALM      29.96R FOG
DETROIT LAKES  SUNNY     59  59 100 CALM      29.97S FOG
MOORHEAD       SUNNY     57  57 100 CALM      29.96R FOG
FERGUS FALLS   SUNNY     61  61 100 E5        29.95R
ELBOW LAKE     FAIR      62  58  88 E3        29.95S
6HR MIN TEMP:  61; 6HR MAX TEMP:  64;

MORRIS MN      SUNNY     59  57  94 CALM      29.94S FOG
STAPLES        SUNNY     55  55 100 N3        29.96R FOG
WHEATON          N/A     57  57 100 CALM      29.97S FOG
$$
  *****  WEATHER ELSEWHERE ACROSS MINNESOTA  *****

CITY           SKY/WX    TMP DP  RH WIND       PRES   REMARKS
DULUTH         CLOUDY    57  53  86 E14       29.95R
6HR MIN TEMP:  57; 6HR MAX TEMP:  64;

INTRNTL FALLS  MOSUNNY   56  51  84 CALM      29.99S
6HR MIN TEMP:  46; 6HR MAX TEMP:  59;

ELY            CLOUDY    55  46  71 NE7       29.97S
CLOQUET        CLOUDY    59  55  88 NE5       29.94R
BRAINERD       SUNNY     59  56  89 NE6       29.95R FOG
6HR MIN TEMP:  55; 6HR MAX TEMP:  65;

HIBBING        SUNNY     55  52  89 NE5       29.96R
6HR MIN TEMP:  51; 6HR MAX TEMP:  59;

ALEXANDRIA     SUNNY     61  57  87 CALM      29.97R
6HR MIN TEMP:  59; 6HR MAX TEMP:  67;

SAINT CLOUD    SUNNY     59  57  93 N5        29.93R FOG
6HR MIN TEMP:  58; 6HR MAX TEMP:  63;

MINNEAPOLIS    MOSUNNY   63  60  90 N7        29.90R
6HR MIN TEMP:  62; 6HR MAX TEMP:  66;

$$

  *****  WEATHER ACROSS SOUTH DAKOTA  *****

CITY           SKY/WX    TMP DP  RH WIND       PRES   REMARKS
SIOUX FALLS    CLOUDY    65  62  90 CALM      29.95S
6HR MIN TEMP:  62; 6HR MAX TEMP:  69;

BROOKINGS      CLOUDY    63  57  82 CALM      29.98R
WATERTOWN      CLOUDY    62  59  90 NE5       29.96S FOG
6HR MIN TEMP:  57; 6HR MAX TEMP:  64;

HURON          CLOUDY    67  65  93 S3        29.94F FOG
6HR MIN TEMP:  66; 6HR MAX TEMP:  70; 6HR PCP: TRACE;

SISSETON         N/A     61  60  97 N6        29.96R
ABERDEEN       CLOUDY    65  62  90 NE3       29.96S FOG
6HR MIN TEMP:  64; 6HR MAX TEMP:  67;

MITCHELL       LGT RAIN  68  67  96 SE3       29.95F FOG
PIERRE         CLOUDY    70  61  73 SE13      29.90F
6HR MIN TEMP:  65; 6HR MAX TEMP:  72; 6HR PCP: TRACE;

MOBRIDGE       CLOUDY    68  66  93 E5        29.91R
RAPID CITY     PTCLDY    66  56  70 NW5       29.95F
6HR MIN TEMP:  63; 6HR MAX TEMP:  71;

$$

  *****  SOME WEATHER IN NEARBY STATES *****

CITY           SKY/WX    TMP DP  RH WIND       PRES   REMARKS
GLASGOW MT     NOT AVBL
GREAT FALLS MT CLEAR     66  57  72 SW12      29.99S
6HR MIN TEMP:  65; 6HR MAX TEMP:  70; 6HR PCP: TRACE;

CHEYENNE WY    PTCLDY    57  45  64 W10       30.22S
6HR MIN TEMP:  56; 6HR MAX TEMP:  61;

SCOTTSBLUFF NE PTCLDY    60  55  83 NW7       30.07R
6HR MIN TEMP:  58; 6HR MAX TEMP:  70;

OMAHA NE       CLOUDY    70  64  81 CALM      29.93R
6HR MIN TEMP:  67; 6HR MAX TEMP:  70;

DES MOINES IA  CLOUDY    68  62  81 NW3       29.89R HAZE
6HR MIN TEMP:  67; 6HR MAX TEMP:  70;

DAVENPORT IA   MOSUNNY   63  61  93 NW6       29.86R FOG
6HR MIN TEMP:  60; 6HR MAX TEMP:  65;

CHICAGO IL     MOSUNNY   63  60  90 NW6       29.79S
6HR MIN TEMP:  62; 6HR MAX TEMP:  66; 6HR PCP:  0.17;

EAU CLAIRE WI  CLOUDY    60  58  92 NE6       29.89R
6HR MIN TEMP:  52; 6HR MAX TEMP:  60;

LA CROSSE WI   PTSUNNY   61  60  97 N6        29.87R FOG
6HR MIN TEMP:  60; 6HR MAX TEMP:  61;

$$

  *****  SOME NATIONAL WEATHER *****

CITY           SKY/WX    TMP DP  RH WIND       PRES   REMARKS
LA GUARDIA NY  PTSUNNY   73  59  61 S8        29.98R
6HR MIN TEMP:  67; 6HR MAX TEMP:  73;




USA.gov is the U.S. government's official web portal to all federal, state and local government web resources and services.